Terug naar catalogus

GANGZHONGDA-1

ActiefWetenschapSSO
NORAD 67747·PAYLOAD·🇨🇳 China
Deze satellietnaam is nog niet bevestigd door officiële bronnen.

Gelanceerd Feb 12, 2026 vanaf South China Sea Launch Area

Loading…

Volgende Passages (komende 24 uur)

TLE

VersSource: Space-Track

Epoch: Sep 14, 2026, 03:42 UTC

1 67747U 26027B   26257.15484318  .00005056  00000-0  23666-3 0  9996
2 67747  97.5173  24.8974 0008423 266.5998  93.4273 15.20167987 32471

Volg GANGZHONGDA-1 in realtime met AllMySat

Download on the App Store